Location: Munkebjergskolens Observatorium
(55.3864°N, 10.3987°E)
Time: 03:07:54
(UTC+02:00)

Oscar 19 - Pass Details

Date: 09 April 2023
Orbit: 773 x 789 km, 98.8° (Epoch: 07 June)

Event Time Altitude Azimuth Distance (km) Brightness Sun altitude
Rises 05:30:56 0° 17° (NNE) 3,280 14.6 -8.7°
Reaches altitude 10° 05:33:17 10° 21° (NNE) 2,350 13.9 -8.4°
Maximum altitude 05:38:27 66° 104° (ESE) 858 11.1 -7.8°
Drops below altitude 10° 05:43:35 10° 186° (S) 2,343 12.8 -7.1°
Sets 05:45:55 0° 190° (S) 3,270 13.5 -6.8°
